Home   Weather   33°54'N, 81°12'W   Past weeks
Flag for USA

Past Weather in 33°54'N, 81°12'W, USA — Yesterday and Last 2 Weeks

Now
92 °F

Partly sunny.


Feels Like: 94 °F
Forecast: 94 / 68 °F
Wind: 3 mph from Southeast

Location: Columbia Owens Downtown Airport

Current Time: Sep 17, 2019 at 6:58:48 pm

Latest Report: Sep 17, 2019 at 5:53 pm


Visibility: 10 mi

Pressure: 29.91 "Hg

Humidity: 41%

Dew Point: 65 °F

Location of 33°54'N, 81°12'WLocation

Past Weather in 33°54'N, 81°12'W — Graph

°F

33°54'N, 81°12'W Temperature Yesterday

Maximum temperature yesterday: 96 °F (at 4:53 pm)
Minimum temperature yesterday: 73 °F (at 3:53 am)
Average temperature yesterday: 83 °F

High & Low Weather Summary for the Past Weeks

 TemperatureHumidityPressure
High97 °F (Sep 9, 3:53 pm)94% (Sep 9, 6:53 am)30.30 "Hg (Sep 9, 6:53 am)
Low67 °F (Sep 7, 6:53 am)29% (Sep 16, 4:53 pm)29.72 "Hg (Sep 5, 12:53 pm)
Average82 °F67%30.04 "Hg
* Reported Sep 2 5:53 pm — Sep 17 5:53 pm, 33°54'N, 81°12'W. Weather by CustomWeather, © 2019

Note: Actual official high and low records may vary slightly from our data, if they occured in-between our weather recording intervals... More about our weather records

Advertising

33°54'N, 81°12'W Weather History for the Previous 24 Hours

Scroll right to see more
 ConditionsComfort  
Time TempWeatherWind HumidityBarometerVisibility
5:53 pm
Tue, Sep 17
92 °FPartly sunny.3 mph41%29.91 "Hg10 mi
4:53 pm94 °FPartly sunny.6 mph37%29.90 "Hg10 mi
3:53 pm96 °FPartly sunny.5 mph32%29.90 "Hg10 mi
2:53 pm97 °FPassing clouds.3 mph34%29.91 "Hg10 mi
12:53 pm92 °FSunny.No wind41%29.96 "Hg10 mi
11:53 am89 °FSunny.5 mph45%29.97 "Hg10 mi
10:53 am85 °FSunny.No wind55%29.99 "Hg10 mi
9:53 am82 °FSunny.No wind60%29.99 "Hg10 mi
8:53 am75 °FSunny.No wind76%29.98 "Hg10 mi
7:53 am70 °FSunny.No wind84%29.97 "Hg10 mi
6:53 am69 °FClear.No wind84%29.96 "Hg10 mi
5:53 am70 °FClear.No wind84%29.95 "Hg10 mi
4:53 am71 °FClear.No wind81%29.94 "Hg10 mi
3:53 am71 °FClear.No wind81%29.94 "Hg10 mi
2:53 am72 °FClear.No wind78%29.95 "Hg10 mi
1:53 am73 °FClear.No wind76%29.96 "Hg10 mi
12:53 am75 °FClear.No wind74%29.96 "Hg10 mi
11:53 pm
Mon, Sep 16
76 °FClear.No wind72%29.96 "Hg10 mi
10:53 pm78 °FClear.No wind62%29.96 "Hg10 mi
9:53 pm80 °FClear.No wind56%29.96 "Hg10 mi
8:53 pm83 °FClear.No wind51%29.95 "Hg10 mi
7:53 pm87 °FClear.No wind42%29.94 "Hg10 mi
6:53 pm93 °FSunny.No wind33%29.94 "Hg10 mi
Weather by CustomWeather, © 2019

See weather overview